WX1N Weather Reports


Display with metric or nautical units.
time (UTC)temp
F
wind
direction
speed
MPH
gust
MPH
rain 1hr
in
rain 24hr
in
rain mn
in
humidity
%
barometer
mb
20260903162002 68 0 0.0 0.0 0.00 0.00 0.00 76 1012.8
20260903161502 68 0 0.0 0.0 0.00 0.00 0.00 74 1012.8
20260903161002 68 0 0.0 0.0 0.00 0.00 0.00 74 1012.9
20260903160503 69 0 0.0 0.0 0.00 0.00 0.00 72 1013.0
20260903160003 68 0 0.0 0.0 0.00 0.00 0.00 70 1013.0
20260903155503 68 0 0.0 0.0 0.00 0.00 0.00 71 1012.9
20260903155003 68 0 0.0 0.0 0.00 0.00 0.00 69 1012.9
20260903154503 68 0 0.0 0.0 0.00 0.00 0.00 70 1013.0
20260903154002 67 0 0.0 0.0 0.00 0.00 0.00 69 1013.1
20260903153502 67 0 0.0 0.0 0.00 0.00 0.00 69 1013.1
20260903153003 67 0 0.0 0.0 0.00 0.00 0.00 70 1013.2
20260903152503 67 0 0.0 0.0 0.00 0.00 0.00 68 1013.2
20260903152003 67 0 0.0 0.0 0.00 0.00 0.00 66 1013.3
20260903151503 67 0 0.0 0.0 0.00 0.00 0.00 65 1013.4
20260903151003 67 0 0.0 0.0 0.00 0.00 0.00 67 1013.4
20260903150503 67 0 0.0 0.0 0.00 0.00 0.00 67 1013.4
20260903150003 67 0 0.0 0.0 0.00 0.00 0.00 66 1013.4
20260903145503 66 0 0.0 0.0 0.00 0.00 0.00 62 1013.5
20260903145003 66 0 0.0 0.0 0.00 0.00 0.00 60 1013.4
20260903144502 66 0 0.0 0.0 0.00 0.00 0.00 62 1013.6
20260903144002 66 0 0.0 0.0 0.00 0.00 0.00 60 1013.5
20260903143503 66 0 0.0 0.0 0.00 0.00 0.00 62 1013.5
20260903143003 66 0 0.0 0.0 0.00 0.00 0.00 59 1013.6
20260903142503 66 0 0.0 0.0 0.00 0.00 0.00 57 1013.6
20260903142003 66 0 0.0 0.0 0.00 0.00 0.00 55 1013.7
20260903141503 66 0 0.0 0.0 0.00 0.00 0.00 56 1013.7
20260903141003 65 0 0.0 0.0 0.00 0.00 0.00 54 1013.7
20260903140503 65 0 0.0 0.0 0.00 0.00 0.00 51 1013.7
20260903140002 65 0 0.0 0.0 0.00 0.00 0.00 49 1013.6
20260903135502 65 0 0.0 0.0 0.00 0.00 0.00 50 1013.7
20260903135003 65 0 0.0 0.0 0.00 0.00 0.00 51 1013.6
20260903134503 65 0 0.0 0.0 0.00 0.00 0.00 51 1013.6
20260903134003 65 0 0.0 0.0 0.00 0.00 0.00 49 1013.6
20260903133503 65 0 0.0 0.0 0.00 0.00 0.00 48 1013.7
20260903133003 65 0 0.0 0.0 0.00 0.00 0.00 48 1013.6
20260903132503 65 0 0.0 0.0 0.00 0.00 0.00 46 1013.6
20260903132003 64 0 0.0 0.0 0.00 0.00 0.00 45 1013.6
20260903131503 64 0 0.0 0.0 0.00 0.00 0.00 44 1013.6
20260903131002 64 0 0.0 0.0 0.00 0.00 0.00 44 1013.6
20260903130502 64 0 0.0 0.0 0.00 0.00 0.00 44 1013.6
20260903130003 64 0 0.0 0.0 0.00 0.00 0.00 43 1013.6
20260903125503 64 0 0.0 0.0 0.00 0.00 0.00 42 1013.7
20260903125003 64 0 0.0 0.0 0.00 0.00 0.00 42 1013.7
20260903124503 64 0 0.0 0.0 0.00 0.00 0.00 42 1013.8
20260903124003 64 0 0.0 0.0 0.00 0.00 0.00 42 1013.8
20260903123504 64 0 0.0 0.0 0.00 0.00 0.00 41 1013.8
20260903123003 64 0 0.0 0.0 0.00 0.00 0.00 40 1013.8
20260903122503 63 0 0.0 0.0 0.00 0.00 0.00 40 1013.8
20260903122003 63 0 0.0 0.0 0.00 0.00 0.00 39 1013.8
20260903121502 63 0 0.0 0.0 0.00 0.00 0.00 40 1013.9
20260903121002 63 0 0.0 0.0 0.00 0.00 0.00 40 1014.0
20260903120502 63 0 0.0 0.0 0.00 0.00 0.00 41 1014.0
20260903120003 63 0 0.0 0.0 0.00 0.00 0.00 41 1014.0
20260903115503 62 0 0.0 0.0 0.00 0.00 0.00 41 1014.0
20260903115003 62 0 0.0 0.0 0.00 0.00 0.00 41 1014.1
20260903114503 62 0 0.0 0.0 0.00 0.00 0.00 41 1014.1
20260903114003 62 0 0.0 0.0 0.00 0.00 0.00 41 1014.2
20260903113503 62 0 0.0 0.0 0.00 0.00 0.00 41 1014.1
20260903113003 62 0 0.0 0.0 0.00 0.00 0.00 41 1014.1
20260903112503 62 0 0.0 0.0 0.00 0.00 0.00 41 1014.2
20260903112003 62 0 0.0 0.0 0.00 0.00 0.00 42 1014.3
20260903111502 62 0 0.0 0.0 0.00 0.00 0.00 42 1014.2
20260903111003 62 0 0.0 0.0 0.00 0.00 0.00 42 1014.1
20260903110503 62 0 0.0 0.0 0.00 0.00 0.00 42 1014.2
20260903110003 62 0 0.0 0.0 0.00 0.00 0.00 42 1014.3
20260903105503 62 0 0.0 0.0 0.00 0.00 0.00 42 1014.2
20260903105003 62 0 0.0 0.0 0.00 0.00 0.00 42 1014.3
20260903104503 62 0 0.0 0.0 0.00 0.00 0.00 43 1014.2
20260903104004 62 0 0.0 0.0 0.00 0.00 0.00 44 1014.1
20260903103503 62 0 0.0 0.0 0.00 0.00 0.00 44 1014.1
20260903103002 62 0 0.0 0.0 0.00 0.00 0.00 44 1014.0
20260903102502 62 0 0.0 0.0 0.00 0.00 0.00 44 1014.0
20260903102003 62 0 0.0 0.0 0.00 0.00 0.00 44 1014.0
20260903101503 62 0 0.0 0.0 0.00 0.00 0.00 44 1014.0
20260903101003 62 0 0.0 0.0 0.00 0.00 0.00 43 1014.1
20260903100503 61 0 0.0 0.0 0.00 0.00 0.00 44 1014.2
20260903100003 61 0 0.0 0.0 0.00 0.00 0.00 44 1014.1
20260903095503 61 0 0.0 0.0 0.00 0.00 0.00 46 1014.1
20260903095003 61 0 0.0 0.0 0.00 0.00 0.00 46 1014.1
20260903094503 61 0 0.0 0.0 0.00 0.00 0.00 46 1014.2
20260903094003 61 0 0.0 0.0 0.00 0.00 0.00 46 1014.1
20260903093503 61 0 0.0 0.0 0.00 0.00 0.00 46 1014.1
20260903093003 61 0 0.0 0.0 0.00 0.00 0.00 47 1014.1
20260903092503 61 0 0.0 0.0 0.00 0.00 0.00 47 1014.0
20260903092003 61 0 0.0 0.0 0.00 0.00 0.00 47 1014.2
20260903091503 61 0 0.0 0.0 0.00 0.00 0.00 48 1014.2
20260903091003 61 0 0.0 0.0 0.00 0.00 0.00 48 1014.2
20260903090504 61 0 0.0 0.0 0.00 0.00 0.00 47 1014.2
20260903090003 61 0 0.0 0.0 0.00 0.00 0.00 47 1014.3
20260903085503 61 0 0.0 0.0 0.00 0.00 0.00 48 1014.4
20260903085003 61 0 0.0 0.0 0.00 0.00 0.00 49 1014.5
20260903084503 61 0 0.0 0.0 0.00 0.00 0.00 49 1014.4
20260903084004 61 0 0.0 0.0 0.00 0.00 0.00 49 1014.7
20260903083503 61 0 0.0 0.0 0.00 0.00 0.00 49 1014.7
20260903083003 61 0 0.0 0.0 0.00 0.00 0.00 49 1014.8
20260903082503 61 0 0.0 0.0 0.00 0.00 0.00 49 1014.8
20260903082003 61 0 0.0 0.0 0.00 0.00 0.00 49 1014.8
20260903081502 61 0 0.0 0.0 0.00 0.00 0.00 50 1014.8
20260903081003 61 0 0.0 0.0 0.00 0.00 0.00 50 1014.8
20260903080503 61 0 0.0 0.0 0.00 0.00 0.00 50 1014.7
20260903080003 61 0 0.0 0.0 0.00 0.00 0.00 51 1014.6
20260903075503 61 0 0.0 0.0 0.00 0.00 0.00 52 1014.7
20260903075003 61 0 0.0 0.0 0.00 0.00 0.00 52 1014.8
20260903074503 61 0 0.0 0.0 0.00 0.00 0.00 52 1014.9
20260903074003 61 0 0.0 0.0 0.00 0.00 0.00 54 1014.9
20260903073503 61 0 0.0 0.0 0.00 0.00 0.00 55 1014.9
20260903073003 61 0 0.0 0.0 0.00 0.00 0.00 55 1015.0
20260903072502 62 0 0.0 0.0 0.00 0.00 0.00 56 1015.0
20260903072003 62 0 0.0 0.0 0.00 0.00 0.00 56 1015.1
20260903071503 62 0 0.0 0.0 0.00 0.00 0.00 56 1015.2
20260903071003 62 0 0.0 0.0 0.00 0.00 0.00 57 1015.1
20260903070503 62 0 0.0 0.0 0.00 0.00 0.00 58 1015.1
20260903070003 62 0 0.0 0.0 0.00 0.00 0.00 58 1015.3
20260903065503 62 0 0.0 0.0 0.00 0.00 0.00 59 1015.3
20260903065002 62 0 0.0 0.0 0.00 0.00 0.00 62 1015.2
20260903064503 62 0 0.0 0.0 0.00 0.00 0.00 63 1015.1
20260903064003 62 0 0.0 0.0 0.00 0.00 0.00 64 1015.1
20260903063503 62 0 0.0 0.0 0.00 0.00 0.00 65 1015.1
20260903063003 62 0 0.0 0.0 0.00 0.00 0.00 67 1015.0
20260903062503 62 0 0.0 0.0 0.00 0.00 0.00 68 1015.1
20260903062003 62 0 0.0 0.0 0.00 0.00 0.00 69 1015.2
20260903061503 62 0 0.0 0.0 0.00 0.00 0.00 72 1015.2
20260903061003 62 0 0.0 0.0 0.00 0.00 0.00 74 1015.3
20260903060503 62 0 0.0 0.0 0.00 0.00 0.00 77 1015.4
20260903060002 63 0 0.0 0.0 0.00 0.00 0.00 78 1015.4
20260903055503 63 0 0.0 0.0 0.00 0.00 0.00 79 1015.6
20260903055003 63 0 0.0 0.0 0.00 0.00 0.00 81 1015.7
20260903054503 63 0 0.0 0.0 0.00 0.00 0.00 81 1015.8
20260903054003 63 0 0.0 0.0 0.00 0.00 0.00 82 1016.0
20260903053503 63 0 0.0 0.0 0.00 0.00 0.00 82 1015.9
20260903053003 63 0 0.0 0.0 0.00 0.00 0.00 82 1016.1
20260903052503 64 0 0.0 0.0 0.00 0.00 0.00 83 1016.0
20260903052003 64 0 0.0 0.0 0.00 0.00 0.00 82 1015.9
20260903051503 64 0 0.0 0.0 0.00 0.00 0.00 82 1015.8
20260903051002 64 0 0.0 0.0 0.00 0.00 0.00 82 1016.0
20260903050503 65 0 0.0 0.0 0.00 0.00 0.00 82 1016.2
20260903050003 65 0 0.0 0.0 0.00 0.00 0.00 82 1016.3
20260903045503 65 0 0.0 0.0 0.00 0.00 0.00 82 1016.4
20260903045003 65 0 0.0 0.0 0.00 0.00 0.00 81 1016.2
20260903044503 65 0 0.0 0.0 0.00 0.00 0.00 81 1016.2
20260903044003 65 0 0.0 0.0 0.00 0.00 0.00 81 1016.2
20260903043503 65 0 0.0 0.0 0.00 0.00 0.00 81 1016.3
20260903043003 65 0 0.0 0.0 0.00 0.00 0.00 81 1016.2
20260903042503 65 0 0.0 0.0 0.00 0.00 0.00 81 1016.1
20260903042003 65 0 0.0 0.0 0.00 0.00 0.00 81 1016.0
20260903041503 65 0 0.0 0.0 0.00 0.00 0.00 81 1016.1
20260903041003 65 0 0.0 0.0 0.00 0.00 0.00 81 1016.2
20260903040503 65 0 0.0 0.0 0.00 0.00 0.00 82 1016.3
20260903040003 65 0 0.0 0.0 0.00 0.00 0.00 82 1016.3
20260903035503 65 0 0.0 0.0 0.00 0.00 0.00 82 1016.3
20260903035003 65 0 0.0 0.0 0.00 0.00 0.00 82 1016.4
20260903034504 65 0 0.0 0.0 0.00 0.00 0.00 82 1016.4
20260903034003 65 0 0.0 0.0 0.00 0.00 0.00 82 1016.5
20260903033503 65 0 0.0 0.0 0.00 0.00 0.00 82 1016.5
20260903033003 65 0 0.0 0.0 0.00 0.00 0.00 82 1016.6
20260903032504 65 0 0.0 0.0 0.00 0.00 0.00 82 1016.7
20260903032003 65 0 0.0 0.0 0.00 0.00 0.00 82 1016.9
20260903031503 65 0 0.0 0.0 0.00 0.00 0.00 82 1017.0
20260903030503 65 0 0.0 0.0 0.00 0.00 0.00 82 1017.2
20260903030003 65 0 0.0 0.0 0.00 0.00 0.00 82 1017.3
20260903025503 65 0 0.0 0.0 0.00 0.00 0.00 82 1017.2
20260903025003 65 0 0.0 0.0 0.00 0.00 0.00 82 1017.2
20260903024503 65 0 0.0 0.0 0.00 0.00 0.00 82 1017.3
20260903024003 65 0 0.0 0.0 0.00 0.00 0.00 81 1017.2
20260903023503 65 0 0.0 0.0 0.00 0.00 0.00 81 1017.2
20260903023003 65 0 0.0 0.0 0.00 0.00 0.00 81 1017.1
20260903022504 65 0 0.0 0.0 0.00 0.00 0.00 81 1017.1
20260903022004 65 0 0.0 0.0 0.00 0.00 0.00 81 1017.0
20260903021503 65 0 0.0 0.0 0.00 0.00 0.00 81 1017.2
20260903021003 65 0 0.0 0.0 0.00 0.00 0.00 81 1017.2
20260903020503 65 0 0.0 0.0 0.00 0.00 0.00 81 1017.4
20260903020003 65 0 0.0 0.0 0.00 0.00 0.00 80 1017.5
20260903015503 65 0 0.0 0.0 0.00 0.00 0.00 81 1017.6
20260903015003 65 0 0.0 0.0 0.00 0.00 0.00 81 1017.6
20260903014503 65 0 0.0 0.0 0.00 0.00 0.00 81 1017.7
20260903014003 65 0 0.0 0.0 0.00 0.00 0.00 81 1017.7
20260903013503 65 0 0.0 0.0 0.00 0.00 0.00 81 1017.9
20260903013003 66 0 0.0 0.0 0.00 0.00 0.00 81 1018.0
20260903012503 66 0 0.0 0.0 0.00 0.00 0.00 80 1017.9
20260903012003 66 0 0.0 0.0 0.00 0.00 0.00 80 1017.9
20260903011503 66 0 0.0 0.0 0.00 0.00 0.00 81 1017.8
20260903011003 66 0 0.0 0.0 0.00 0.00 0.00 80 1017.6
20260903010503 66 0 0.0 0.0 0.00 0.00 0.00 80 1017.7
20260903010003 66 0 0.0 0.0 0.00 0.00 0.00 80 1017.7
20260903005503 66 0 0.0 0.0 0.00 0.00 0.00 79 1017.7
20260903005003 66 0 0.0 0.0 0.00 0.00 0.00 80 1017.6
20260903004504 66 0 0.0 0.0 0.00 0.00 0.00 80 1017.5
20260903004003 66 0 0.0 0.0 0.00 0.00 0.00 80 1017.5
20260903003503 66 0 0.0 0.0 0.00 0.00 0.00 80 1017.5
20260903003004 66 0 0.0 0.0 0.00 0.00 0.00 80 1017.4
20260903002504 66 0 0.0 0.0 0.00 0.00 0.00 80 1017.4
20260903002003 66 0 0.0 0.0 0.00 0.00 0.00 80 1017.1
20260903001503 66 0 0.0 0.0 0.00 0.00 0.00 80 1017.2
20260903001003 66 0 0.0 0.0 0.00 0.00 0.00 80 1017.0
20260903000503 66 0 0.0 0.0 0.00 0.00 0.00 80 1017.0
20260903000003 66 0 0.0 0.0 0.00 0.00 0.00 80 1017.0
20260902235503 66 0 0.0 0.0 0.00 0.00 0.00 81 1017.2
20260902235004 66 0 0.0 0.0 0.00 0.00 0.00 81 1017.0
20260902234504 66 0 0.0 0.0 0.00 0.00 0.00 81 1016.9
20260902234003 66 0 0.0 0.0 0.00 0.00 0.00 81 1016.9
20260902233503 66 0 0.0 0.0 0.00 0.00 0.00 80 1017.1
20260902233003 66 0 0.0 0.0 0.00 0.00 0.00 80 1017.3
20260902232503 66 0 0.0 0.0 0.00 0.00 0.00 79 1017.4
20260902232003 66 0 0.0 0.0 0.00 0.00 0.00 78 1017.6
20260902231503 66 0 0.0 0.0 0.00 0.00 0.00 76 1017.9
20260902231003 67 0 0.0 0.0 0.00 0.00 0.00 74 1018.1
20260902230503 67 0 0.0 0.0 0.00 0.00 0.00 75 1018.3
20260902230004 67 0 0.0 0.0 0.00 0.00 0.00 75 1018.4
20260902225504 67 0 0.0 0.0 0.00 0.00 0.00 76 1018.6
20260902225003 67 0 0.0 0.0 0.00 0.00 0.00 77 1018.7
20260902224503 67 0 0.0 0.0 0.00 0.00 0.00 78 1018.8
20260902224003 68 0 0.0 0.0 0.00 0.00 0.00 78 1018.9
20260902223503 68 0 0.0 0.0 0.00 0.00 0.00 78 1018.9
20260902223003 68 0 0.0 0.0 0.00 0.00 0.00 79 1019.0
20260902222503 68 0 0.0 0.0 0.00 0.00 0.00 80 1019.0
20260902222004 68 0 0.0 0.0 0.00 0.00 0.00 81 1019.0
20260902221503 68 0 0.0 0.0 0.00 0.00 0.00 81 1019.0
20260902221003 68 0 0.0 0.0 0.00 0.00 0.00 81 1019.0
20260902220503 68 0 0.0 0.0 0.00 0.00 0.00 81 1019.0
20260902220004 68 0 0.0 0.0 0.00 0.00 0.00 81 1019.1
20260902215504 68 0 0.0 0.0 0.00 0.00 0.00 81 1019.1
20260902215004 68 0 0.0 0.0 0.00 0.00 0.00 81 1019.0
20260902214504 68 0 0.0 0.0 0.00 0.00 0.00 81 1019.0
20260902214004 68 0 0.0 0.0 0.00 0.00 0.00 81 1018.9
20260902213504 69 0 0.0 0.0 0.00 0.00 0.00 81 1019.0
20260902213003 69 0 0.0 0.0 0.00 0.00 0.00 82 1018.9
20260902212503 69 0 0.0 0.0 0.00 0.00 0.00 81 1018.9
20260902212003 69 0 0.0 0.0 0.00 0.00 0.00 81 1018.9
20260902211503 69 0 0.0 0.0 0.00 0.00 0.00 81 1018.8
20260902211003 70 0 0.0 0.0 0.00 0.00 0.00 81 1019.0
20260902210503 70 0 0.0 0.0 0.00 0.00 0.00 81 1019.0
20260902210004 70 0 0.0 0.0 0.00 0.00 0.00 81 1019.0
20260902205503 70 0 0.0 0.0 0.00 0.00 0.00 80 1019.1
20260902205004 70 0 0.0 0.0 0.00 0.00 0.00 80 1019.0
20260902204504 70 0 0.0 0.0 0.00 0.00 0.00 80 1019.0
20260902204003 70 0 0.0 0.0 0.00 0.00 0.00 80 1019.0
20260902203503 70 0 0.0 0.0 0.00 0.00 0.00 80 1018.9
20260902203003 70 0 0.0 0.0 0.00 0.00 0.00 80 1018.8
20260902202503 70 0 0.0 0.0 0.00 0.00 0.00 80 1019.0
20260902202003 70 0 0.0 0.0 0.00 0.00 0.00 81 1019.1
20260902201503 70 0 0.0 0.0 0.00 0.00 0.00 80 1019.2
20260902201003 70 0 0.0 0.0 0.00 0.00 0.00 81 1019.2
20260902200503 70 0 0.0 0.0 0.00 0.00 0.00 80 1019.2
20260902200004 70 0 0.0 0.0 0.00 0.00 0.00 80 1019.4
20260902195503 70 0 0.0 0.0 0.00 0.00 0.00 79 1019.4
20260902195004 70 0 0.0 0.0 0.00 0.00 0.00 80 1019.4
20260902194504 70 0 0.0 0.0 0.00 0.00 0.00 80 1019.4
20260902194004 70 0 0.0 0.0 0.00 0.00 0.00 79 1019.3
20260902193503 70 0 0.0 0.0 0.00 0.00 0.00 80 1019.3
20260902193003 70 0 0.0 0.0 0.00 0.00 0.00 80 1019.4
20260902192503 70 0 0.0 0.0 0.00 0.00 0.00 80 1019.6
20260902192004 70 0 0.0 0.0 0.00 0.00 0.00 81 1019.6
20260902191503 70 0 0.0 0.0 0.00 0.00 0.00 80 1019.6
20260902191004 70 0 0.0 0.0 0.00 0.00 0.00 80 1019.8
20260902190504 70 0 0.0 0.0 0.00 0.00 0.00 80 1019.8
20260902190003 70 0 0.0 0.0 0.00 0.00 0.00 80 1019.7
20260902185503 70 0 0.0 0.0 0.00 0.00 0.00 79 1019.8
20260902185004 70 0 0.0 0.0 0.00 0.00 0.00 80 1019.8
20260902184503 70 0 0.0 0.0 0.00 0.00 0.00 80 1019.8
20260902184003 70 0 0.0 0.0 0.00 0.00 0.00 80 1019.9
20260902183503 69 0 0.0 0.0 0.00 0.00 0.00 80 1020.0
20260902183003 69 0 0.0 0.0 0.00 0.00 0.00 80 1020.1
20260902182503 69 0 0.0 0.0 0.00 0.00 0.00 79 1020.1
20260902182004 70 0 0.0 0.0 0.00 0.00 0.00 79 1020.1
20260902181503 69 0 0.0 0.0 0.00 0.00 0.00 79 1020.1
20260902181004 69 0 0.0 0.0 0.00 0.00 0.00 79 1020.1
20260902180503 69 0 0.0 0.0 0.00 0.00 0.00 80 1020.1
20260902180006 69 0 0.0 0.0 0.00 0.00 0.00 79 1020.0
20260902175504 69 0 0.0 0.0 0.00 0.00 0.00 80 1019.9
20260902175004 69 0 0.0 0.0 0.00 0.00 0.00 80 1020.0
20260902174503 69 0 0.0 0.0 0.00 0.00 0.00 80 1020.1
20260902174003 68 0 0.0 0.0 0.00 0.00 0.00 80 1020.0
20260902173503 68 0 0.0 0.0 0.00 0.00 0.00 80 1020.1
20260902173003 68 0 0.0 0.0 0.00 0.00 0.00 80 1020.0
20260902172503 68 0 0.0 0.0 0.00 0.00 0.00 79 1020.3
20260902172004 68 0 0.0 0.0 0.00 0.00 0.00 79 1020.3
20260902171504 68 0 0.0 0.0 0.00 0.00 0.00 79 1020.4
20260902171003 68 0 0.0 0.0 0.00 0.00 0.00 78 1020.4
20260902170503 68 0 0.0 0.0 0.00 0.00 0.00 78 1020.4
20260902170003 68 0 0.0 0.0 0.00 0.00 0.00 79 1020.4
20260902165503 68 0 0.0 0.0 0.00 0.00 0.00 79 1020.4
20260902165003 68 0 0.0 0.0 0.00 0.00 0.00 80 1020.4
20260902164503 68 0 0.0 0.0 0.00 0.00 0.00 80 1020.5
20260902164004 68 0 0.0 0.0 0.00 0.00 0.00 80 1020.5
20260902163504 68 0 0.0 0.0 0.00 0.00 0.00 80 1020.6
20260902163004 69 0 0.0 0.0 0.00 0.00 0.00 80 1020.6
20260902162504 69 0 0.0 0.0 0.00 0.00 0.00 80 1020.5